Погода в Бугуруслане

Россия / Оренбургская область     53°39′08″N   52°25′57″E
темп.,
°C
ветер,
м/с
пор.,
м/с
влажн.,
%
обл.,
%
осадки,
мм/ч
давл.,
гПа
погр.,
м
20 апреля, вт
вт2023:00+5в612505 0.0 1027454
02:00+2вюв511501 0.0 1029395
05:000в512510 0.0 1031351
08:00+1в611460 0.0 1032590
11:00+4вюв79310 0.0 10321039
14:00+8вюв79250 0.0 10311330
17:00+9вюв79240 0.0 10301415
20:00+7юв4836100 0.0 1030247
21 апреля, ср
ср2123:00+4вюв394591 0.0 1030204
02:00+3юв51249100 0.0 1030377
05:00+2юв51452100 0.0 1030438
08:00+2юв71550100 0.0 1030644
11:00+6юв91334100 0.0 1029874
14:00+10ююв91128100 0.0 10271175
17:00+9ююв71239100 0.0 10271104
20:00+8ю71240100 0.0 1026965
22 апреля, чт
чт2223:00+5ю61475100 0.9 10271035
02:00+4ююв71490100 2.4 1027969
05:00+5ю71378100 2.9 1028890
08:00+3ююв61397100 3.2 1028574
11:00+3ююв61196100 5.3 1028523
14:00+3ююв61096100 0.3 1029459
17:00+4ююв61193100 0.8 1029577
20:00+4ююв51092100 0.3 1029570
23 апреля, пт
пт2323:00+3ююв5997100 0.4 1029582
02:00+3ююв4898100 0.3 1028515
05:00+3юв2698100 0.4 1028354
08:00+3вюв1398100 0.0 1028171
11:00+6вюв229188 0.0 1027328
14:00+8вюв3378100 0.0 1027589
17:00+11в2365100 0.0 10251025
20:00+10св4775100 0.0 1024171
24 апреля, сб
сб2423:00+8св41080100 0.0 1022240
02:00+7юв51092100 0.0 1021424
05:00+6в3694100 0.4 1019302
08:00+6св2494100 0.6 1018251
11:00+7всв3590100 1.0 1016696
14:00+6ссв2491100 0.8 1015322
17:00+6ссв2590100 1.8 1015439
20:00+6с3591100 0.2 1014252